Tracking 33190 objects as of 10-Feb-2026
HD Live streaming from Space Station
objects crossing your sky now

CZ-6A DEB

Track CZ-6A DEB now!
10-day predictions


NORAD ID: 54504
Int'l Code: 2022-151JG
Perigee: 823.6 km
Apogee: 880.0 km
Inclination: 98.8 °
Period: 101.8 minutes
Semi major axis: 7222 km
RCS: Unknown
Launch date: November 11, 2022
Source: People's Republic of China (PRC)
Launch site: Taiyaun Space Center, China (TSC)

Note: This is SATELLITE DEBRIS
Your satellite tracking list
Your tracking list is empty




NASA's NSSDC Master Catalog

Two Line Element Set (TLE):
1 54504U 22151JG  26040.61125897  .00001134  00000-0  61225-3 0  9998
2 54504  98.8395  49.9153 0038997 297.9523  61.7705 14.14310304167120
Source of the keplerian elements: AFSPC